DELTA 1 DEB, 18540

Orbit data source: Space-Track

DELTA 1 DEB, 18540 is space debris in LEO originally from a launch on Thu, 29 Jul 1976 UTC launched from the Air Force Western Test Range (AFWTR). Debris objects in space refer to the collection of defunct objects orbiting the Earth. Examples of debris include non-operational satellites, rocket bodies, and fragments generated from explosions, collisions, or faulty payload assembly.

Loading next visibility...
Identifier
18540, 1976-077FC
Orbit
LEO
Country
Flag of USUS
Related business
Manufacturer
Unknown
Mission
Spacecraft
Bus & Motor
Unknown
Mass
Unknown
Launch date (UTC)
1976-07-29 (49 years ago)
Launch vehicle
Unknown
Launch site
Air Force Western Test Range (AFWTR)
Object type
Payload
Rocket body
Debris
Shape & HBR
Unknown shape, 0.1 m
Radar Cross Section
Small (<0.1 m²)

Expand to show TLE details & history
Last TLE update: 17 hours ago

TLE from 17 hours ago
0 DELTA 1 DEB
1 18540U 76077FC  25291.24772462  .00001181  00000-0  76181-2 0  9994
2 18540 103.9273  28.3408 0395819  64.3846 324.3576 12.34407667585419
Epoch: 2025-10-18T05:56Z
TLE epoch observation values (Epoch: 2025-10-18T05:56:43.407Z)
Latitude
25.2041°
Longitude
-94.48997°
Altitude
1,283.028 km
Speed
7.33 km/s
True Right ascension
01h 26m 41s
True Declination
25° 04' 51"
Sunlit
Object was in full shadow at epoch
Visualization orbit readout
Latitude
Unknown
Longitude
Unknown
Altitude
Unknown
Speed
Unknown
Apparent Right ascension
Unknown
Apparent Declination
Unknown
Sunlit
N/A
Visualization observer readout
Local Sidereal Time
18:13:40
Azimuth
Unknown
Elevation
Unknown
Doppler factor
Unknown
Orbital elements
Apogee altitude
1,841.042 km
Perigee altitude
1,215.155 km
Semi-major axis
7,906.236 km
Eccentricity
0.03958
Inclination
103.9273°
RAAN
28.3408°
Arg. of periapsis
64.3846°
True anomaly
321.60504°
Mean anomaly
324.3576°
Eccentric anomaly
322.99252°
Mean motion
3.08737 °/min
Orbital period
116.6 mins
BSTAR
0.0076181
Loading maneuver chart data...
Computing Atmospheric mass density...
Loading historical data...
Loading historical data...
Loading historical data...
Loading historical data...
Loading historical data...
Loading historical data...
Loading historical data...

Documentation

Showing up to 5 results
|